Regional Weather Roundup
Issued by NWS

Home | Current Version | Previous Version | Graphics & Text | Print | Product List | Glossary On
Versions: 1 2 3 4 5 6 7 8 9 10 11 12 13 14 15 16 17 18 19 20 21 22 23 24 25 26 27 28 29 30 31 32 33 34 35 36 37 38 39 40 41 42 43 44 45 46 47 48 49 50
790
ASUS43 KFSD 270010
RWRSD

WEATHER ROUNDUP FOR SOUTH DAKOTA
NATIONAL WEATHER SERVICE SIOUX FALLS SD
700 PM CDT MON SEP 26 2016

NOTE: "FAIR" INDICATES FEW OR NO CLOUDS BELOW 12,000 FEET WITH NO
SIGNIFICANT WEATHER AND/OR OBSTRUCTIONS TO VISIBILITY.


SDZ001>005-009-010-012>017-270100-
NORTHWEST AND NORTH CENTRAL SOUTH DAKOTA

CITY           SKY/WX    TMP DP  RH WIND       PRES   REMARKS
BUFFALO          N/A     67  41  38 NW16      30.12S
FAITH            N/A     67  41  38 NW14      30.15S
MOBRIDGE       CLEAR     68  33  27 NW14      30.08R
$$

SDZ012>016-024>037-041>051-057-063-072>074-270100-
SOUTHWEST AND SOUTH CENTRAL SOUTH DAKOTA

CITY           SKY/WX    TMP DP  RH WIND       PRES   REMARKS
RAPID CTY ARPT CLEAR     68  40  35 N18       30.19F
PIERRE         CLEAR     70  37  29 N13       30.08S
CUSTER         CLEAR     62  38  40 W7        30.29F
ELLSWORTH AFB  CLEAR     69  39  33 N14       30.19F
PHILIP         CLEAR     72  39  30 NW14      30.13R
PINE RIDGE     CLEAR     71  41  33 N10       30.19S
WINNER         FAIR      71  40  32 NW6       30.10F
$$

SDZ004>011-016>023-039-040-270100-
NORTHEAST SOUTH DAKOTA

CITY           SKY/WX    TMP DP  RH WIND       PRES   REMARKS
ABERDEEN       CLEAR     65  32  29 NW16      30.04S
WATERTOWN      CLEAR     62  34  35 NW12      30.02S
BROOKINGS      CLEAR     60  33  36 NW10      30.02S
SISSETON         N/A     63  30  28 NW14G22   29.96S
$$

SDZ017-020-022-023-036>040-048>070-270100-
SOUTHEAST SOUTH DAKOTA

CITY           SKY/WX    TMP DP  RH WIND       PRES   REMARKS
SIOUX FALLS    CLEAR     66  37  34 NW7       30.03F
HURON          CLEAR     66  31  27 NW9       30.05S
CHAMBERLAIN    CLEAR     71  41  33 NW8       30.09F
MITCHELL       CLEAR     69  35  28 NW8       30.06F
YANKTON        CLEAR     66  43  42 W8        30.05F
$$

ABBREVIATIONS USED IN REMARKS
   TC - TEMPERATURE IN CELSIUS
  WCI - WIND CHILL INDEX
   HX - HEAT INDEX
  VSB - VISIBILITY





USA.gov is the U.S. government's official web portal to all federal, state and local government web resources and services.